(204) Kallisto
ephemeris date magn radius delta ra dec elong phase
Today5 Sep 202613.92.235 AU2.708 AU14h12m-09°39'52.1°20.9°
Opposition9 Sep 202712.32.545 AU1.545 AU23h00m+02°46'171.5°3.4°
(204) Kallisto - 2026-09-05
astro.vanbuitenen.nl


 
-1 year
-1 month
-1 day
Now
+1 day
+1 month
+1 year

The interactive orbit chart above shows the body's path through the solar system and its position at the given date. Green and blue lines are shown perpendicular to the ecliptic plane: Green if the path is above the ecliptic plane, blue if it is below. (Left-click and drag to rotate the view; Right-click and drag to move the view; Use scroll wheel to zoom in our out.)

The orbital elements of Kallisto are:

            e (Eccentricity)                : 0.1761360
            a (Semimajor axis)              : 2.6696947
            i (Inclination)                 : 8.27108
            Ω (Longitude of ascending node) : 204.89541
            ω (Argument of perihelion)      : 56.98947
            M (Mean anomaly)                : 321.57039
            Epoch                           : 2026 Jun 09

            L (Longitude of perihelion)     : 261.61061
            B (Latitude of perihelion)      : 6.92869
            P (Orbital period in years)     : 4.36            
        

The light curve chart below shows the estimated development of the minor planet's magnitude.


The all-sky chart below shows the path of the minor planet over the same period as the light curve. The current position is marked yellow.





The following chart shows the path of the minor planet in the next few days. The field of view is optimized for (~10x50) binoculars and finderscopes.




Ephemerides:
Date       Time       RA (2000)    DEC (2000)    delta   radius  elong  phase   PA    magn
2026-09-05 00:00 UT   14 12 10.8   -09 39 01     2.708    2.235   52.1   20.9   107   13.9 
2026-09-05 14:35 UT   14 13 16.3   -09 43 55     2.713    2.234   51.8   20.8   107   13.9 
2026-09-06 00:00 UT   14 13 58.7   -09 47 05     2.716    2.234   51.6   20.7   107   13.9 
2026-09-07 00:00 UT   14 15 47.0   -09 55 09     2.724    2.233   51.1   20.6   106   13.9 
2026-09-08 00:00 UT   14 17 35.9   -10 03 12     2.732    2.232   50.6   20.4   106   13.9 
2026-09-09 00:00 UT   14 19 25.2   -10 11 14     2.740    2.232   50.1   20.3   106   13.9 
2026-09-10 00:00 UT   14 21 14.9   -10 19 15     2.748    2.231   49.6   20.1   106   13.9 
2026-09-11 00:00 UT   14 23 05.2   -10 27 16     2.755    2.230   49.1   20.0   106   13.9 
2026-09-12 00:00 UT   14 24 55.9   -10 35 16     2.763    2.229   48.6   19.8   106   13.9 
2026-09-13 00:00 UT   14 26 47.0   -10 43 14     2.771    2.228   48.1   19.6   105   13.9 
2026-09-14 00:00 UT   14 28 38.6   -10 51 11     2.778    2.228   47.6   19.5   105   13.9 
2026-09-15 00:00 UT   14 30 30.6   -10 59 08     2.786    2.227   47.1   19.3   105   13.9 
2026-09-16 00:00 UT   14 32 23.1   -11 07 02     2.793    2.226   46.6   19.2   105   13.9 
2026-09-17 00:00 UT   14 34 16.0   -11 14 55     2.801    2.225   46.1   19.0   105   13.9 
2026-09-18 00:00 UT   14 36 09.4   -11 22 47     2.808    2.225   45.6   18.8   104   13.9 
2026-09-19 00:00 UT   14 38 03.2   -11 30 37     2.815    2.224   45.2   18.7   104   13.9 
2026-09-20 00:00 UT   14 39 57.4   -11 38 24     2.823    2.223   44.7   18.5   104   13.9 
2026-09-21 00:00 UT   14 41 52.0   -11 46 10     2.830    2.223   44.2   18.4   104   13.9 
2026-09-22 00:00 UT   14 43 47.0   -11 53 54     2.837    2.222   43.7   18.2   104   13.9 


    Terminology:
            
    delta:  distance between minor planet and earth in AU
    radius: distance between minor planet and sun in AU
    magn:   magnitude (brightness) estimate    
    ra:     right ascension in hours (24h = 360deg)
    dec:    declination in degrees
    elong:  elongation in degrees (angle sun-earth-minor planet)    
    phase:  phase angle in degrees (angle sun-minor planet-earth)        
    AU:     Astronomical Unit (mean distance between earth and sun: 149597870.7 km
    

Orbital elements provided by the MPC (Minor Planet Center).
Calculations by a modified version of AAPlus, a C# implementation of the AA+ project by PJ Naughter from the algorithms presented in the book "Astronomical Algorithms" by Jean Meeus.
NGC2000 dso catalog and star labels from VizieR as provided by the Strasbourg astronomical Data Center.
Tycho2 catalog from the ESO archive.